User: anonymous   Login
Location: Stigler
(35.2540°N, 95.1230°W)
Time: 12:02:52
(UTC-05:00)
Language:

Cosmos 1805 - Orbit

View from above orbital plane
View from above orbital plane
View from above satellite
View from above satellite

Ground track
Ground track

The orbit data is extracted from the following two-line orbital elements,

1 17191U 86097A   15184.66412942  .00002146  00000-0  13029-3 0  9993
2 17191 082.4753 012.4168 0006269 039.6288 320.5398 15.10013916555744
Epoch (UTC): 03 July 2015 15:56:20
Eccentricity: 0.0006269
inclination: 82.4753°
perigee height: 532 km
apogee height: 540 km
right ascension of ascending node: 12.4168°
argument of perigee: 39.6288°
revolutions per day: 15.10013916
mean anomaly at epoch: 320.5398°
orbit number at epoch: 55574

The dashed part of the orbit path shows where the satellite is in the earth's shadow,  

DLR